Location: Wildcat Hills Observatory
(41.6350°N, 103.6812°W)
Time: 17:12:42
(UTC-07:00)

Cosmos 1634 Rocket - Visible Passes

Search period start: 22 February 2017 00:00
Search period end: 04 March 2017 00:00
Orbit: 959 x 993 km, 82.9° (Epoch: 21 February)

Date Brightness Start Highest point End Pass type
(mag) Time Alt. Az. Time Alt. Az. Time Alt. Az.
22 Feb 6.3 02:49:41 16° NNE 02:49:41 16° NNE 02:50:46 10° NNE visible
22 Feb 6.1 04:34:21 11° NNW 04:34:21 11° NNW 04:34:43 10° NNW visible
23 Feb 6.1 03:15:11 16° N 03:15:11 16° N 03:16:19 10° N visible
24 Feb 6.8 01:55:59 10° NNE 01:55:59 10° NNE 01:56:01 10° NNE visible
24 Feb 6.1 03:40:40 14° NNW 03:40:40 14° NNW 03:41:34 10° N visible
25 Feb 6.5 02:21:27 13° NNE 02:21:27 13° NNE 02:22:00 10° NNE visible
25 Feb 6.2 04:06:07 11° NNW 04:06:07 11° NNW 04:06:19 10° NNW visible
26 Feb 6.3 02:46:54 14° N 02:46:54 14° N 02:47:38 10° N visible
27 Feb 6.3 03:12:20 13° N 03:12:20 13° N 03:12:58 10° N visible
28 Feb 6.7 01:53:05 11° NNE 01:53:05 11° NNE 01:53:13 10° NNE visible
28 Feb 6.3 03:37:46 10° NNW 03:37:46 10° NNW 03:37:52 10° NNW visible
01 Mar 6.5 02:18:30 12° N 02:18:30 12° N 02:18:56 10° N visible
02 Mar 6.4 02:43:54 12° N 02:43:54 12° N 02:44:20 10° N visible
03 Mar 6.4 03:09:17 10° NNW 03:09:17 10° NNW 03:09:22 10° NNW visible
